Location: ČR
(50.0000°N, 15.0000°E)
Time: 12:08:15
(UTC+00:00)

ISS - Pass Details

Date: 26 September 2021
Orbit: 417 x 423 km, 51.6° (Epoch: 16 October)

Event Time Altitude Azimuth Distance (km) Brightness Sun altitude
Rises 18:54:11 0° 283° (WNW) 2,366 1.6 -20.5°
Reaches altitude 10° 18:56:17 10° 285° (WNW) 1,502 0.2 -20.8°
Enters shadow 18:59:22 70° 318° (NW) 451 -3.6 -21.2°
